HB9EKJ-13 Weather Reports


time (UTC)temp
C
wind
direction
speed
KPH
gust
KPH
rain 1hr
cm
rain 24hr
cm
rain mn
cm
humidity
%
barometer
mb
20260506222706 10 0.0 0.0 0.00 0.00 0.00 32 1013.9
20260506220208 10 0.0 0.0 0.00 0.00 0.00 32 1013.9
20260506215707 10 0.0 0.0 0.00 0.00 0.00 32 1013.9
20260506214708 10 0.0 0.0 0.00 0.00 0.00 31 1013.9
20260506214207 10 0.0 0.0 0.00 0.00 0.00 31 1013.9
20260506213208 10 0.0 0.0 0.00 0.00 0.00 31 1013.9
20260506211708 10 0.0 0.0 0.00 0.00 0.00 31 1013.9
20260506204708 10 0.0 0.0 0.00 0.00 0.00 30 1015.0
20260506203208 10 0.0 0.0 0.00 0.00 0.00 29 1013.9
20260506201707 10 0.0 0.0 0.00 0.00 0.00 29 1013.9
20260506200708 10 0.0 0.0 0.00 0.00 0.00 28 1013.9
20260506200208 10 0.0 0.0 0.00 0.00 0.00 28 1013.9
20260506195206 10 0.0 0.0 0.00 0.00 0.00 28 1013.9
20260506194707 10 0.0 0.0 0.00 0.00 0.00 29 1013.9
20260506193708 10 0.0 0.0 0.00 0.00 0.00 28 1012.9
20260506192208 10 0.0 0.0 0.00 0.00 0.00 28 1013.9
20260506191707 10 0.0 0.0 0.00 0.00 0.00 28 1013.9
20260506190707 10 0.0 0.0 0.00 0.00 0.00 28 1013.9
20260506190208 10 0.0 0.0 0.00 0.00 0.00 28 1013.9
20260506185206 10 0.0 0.0 0.00 0.00 0.00 29 1013.9
20260506184707 10 0.0 0.0 0.00 0.00 0.00 29 1013.9
20260506183708 10 0.0 0.0 0.00 0.00 0.00 29 1013.9
20260506183208 10 0.0 0.0 0.00 0.00 0.00 29 1013.9
20260506182207 10 0.0 0.0 0.00 0.00 0.00 29 1012.9
20260506181707 10 0.0 0.0 0.00 0.00 0.00 29 1012.9
20260506180706 11 0.0 0.0 0.00 0.00 0.00 28 1012.9
20260506180209 11 0.0 0.0 0.00 0.00 0.00 28 1012.9
20260506175207 11 0.0 0.0 0.00 0.00 0.00 27 1012.9
20260506174707 11 0.0 0.0 0.00 0.00 0.00 27 1012.9
20260506173707 11 0.0 0.0 0.00 0.00 0.00 27 1011.8
20260506173207 11 0.0 0.0 0.00 0.00 0.00 27 1011.8
20260506172208 11 0.0 0.0 0.00 0.00 0.00 27 1011.8
20260506171707 12 0.0 0.0 0.00 0.00 0.00 28 1011.8
20260506170707 12 0.0 0.0 0.00 0.00 0.00 29 1011.8
20260506165208 12 0.0 0.0 0.00 0.00 0.00 32 1011.8
20260506163706 11 0.0 0.0 0.00 0.00 0.00 30 1011.8
20260506155207 12 0.0 0.0 0.00 0.00 0.00 32 1011.8
20260506154208 11 0.0 0.0 0.00 0.00 0.00 33 1011.8
20260506153706 11 0.0 0.0 0.00 0.00 0.00 35 1011.8
20260506151209 11 0.0 0.0 0.00 0.00 0.00 37 1012.9
20260506145208 10 0.0 0.0 0.00 0.00 0.00 37 1012.9
20260506142706 10 0.0 0.0 0.00 0.00 0.00 36 1011.8
20260506142207 10 0.0 0.0 0.00 0.00 0.00 36 1011.8
20260506141206 10 0.0 0.0 0.00 0.00 0.00 36 1011.8
20260506140707 10 0.0 0.0 0.00 0.00 0.00 34 1011.8
20260506135708 10 0.0 0.0 0.00 0.00 0.00 32 1011.8
20260506135208 10 0.0 0.0 0.00 0.00 0.00 31 1011.8
20260506134209 11 0.0 0.0 0.00 0.00 0.00 28 1010.8
20260506133706 11 0.0 0.0 0.00 0.00 0.00 27 1010.8
20260506132708 12 0.0 0.0 0.00 0.00 0.00 26 1010.8
20260506132209 12 0.0 0.0 0.00 0.00 0.00 26 1010.8
20260506130708 13 0.0 0.0 0.00 0.00 0.00 17 1010.8
20260506125708 14 0.0 0.0 0.00 0.00 0.00 17 1009.7
20260506123706 17 0.0 0.0 0.00 0.00 0.00 16 1009.7
20260506121208 19 0.0 0.0 0.00 0.00 0.00 15 1009.7
20260506114208 17 0.0 0.0 0.00 0.00 0.00 16 1008.7
20260506113208 17 0.0 0.0 0.00 0.00 0.00 16 1008.7
20260506112707 17 0.0 0.0 0.00 0.00 0.00 16 1008.7
20260506111707 17 0.0 0.0 0.00 0.00 0.00 16 1008.7
20260506111206 17 0.0 0.0 0.00 0.00 0.00 16 1009.7
20260506105708 17 0.0 0.0 0.00 0.00 0.00 16 1009.7
20260506104706 17 0.0 0.0 0.00 0.00 0.00 15 1009.7
20260506104206 18 0.0 0.0 0.00 0.00 0.00 15 1009.7
20260506103208 19 0.0 0.0 0.00 0.00 0.00 15 1009.7
20260506101708 18 0.0 0.0 0.00 0.00 0.00 15 1009.7
20260506101208 18 0.0 0.0 0.00 0.00 0.00 15 1009.7
20260506095706 18 0.0 0.0 0.00 0.00 0.00 15 1009.7
20260506094707 18 0.0 0.0 0.00 0.00 0.00 15 1009.7
20260506094206 18 0.0 0.0 0.00 0.00 0.00 15 1009.7
20260506093208 20 0.0 0.0 0.00 0.00 0.00 15 1009.7
20260506092707 19 0.0 0.0 0.00 0.00 0.00 15 1009.7
20260506091707 18 0.0 0.0 0.00 0.00 0.00 15 1009.7
20260506091208 18 0.0 0.0 0.00 0.00 0.00 15 1009.7
20260506085707 17 0.0 0.0 0.00 0.00 0.00 16 1009.7
20260506084708 17 0.0 0.0 0.00 0.00 0.00 16 1009.7
20260506084209 17 0.0 0.0 0.00 0.00 0.00 16 1009.7
20260506083207 17 0.0 0.0 0.00 0.00 0.00 16 1009.7
20260506082708 17 0.0 0.0 0.00 0.00 0.00 16 1009.7
20260506081707 15 0.0 0.0 0.00 0.00 0.00 17 1009.7
20260506080209 15 0.0 0.0 0.00 0.00 0.00 19 1009.7
20260506073207 13 0.0 0.0 0.00 0.00 0.00 25 1009.7
20260506071708 13 0.0 0.0 0.00 0.00 0.00 26 1010.8
20260506062207 11 0.0 0.0 0.00 0.00 0.00 29 1009.7
20260506061707 11 0.0 0.0 0.00 0.00 0.00 29 1009.7
20260506060708 11 0.0 0.0 0.00 0.00 0.00 30 1009.7
20260506050208 10 0.0 0.0 0.00 0.00 0.00 32 1009.7
20260506042206 9 0.0 0.0 0.00 0.00 0.00 32 1009.7
20260506040707 9 0.0 0.0 0.00 0.00 0.00 32 1009.7
20260506035207 9 0.0 0.0 0.00 0.00 0.00 32 1010.8
20260506033708 9 0.0 0.0 0.00 0.00 0.00 31 1010.8
20260506030708 10 0.0 0.0 0.00 0.00 0.00 31 1010.8
20260506025208 10 0.0 0.0 0.00 0.00 0.00 31 1010.8
20260506023707 10 0.0 0.0 0.00 0.00 0.00 31 1011.8
20260506022707 10 0.0 0.0 0.00 0.00 0.00 31 1011.8
20260506022209 10 0.0 0.0 0.00 0.00 0.00 30 1011.8
20260506021207 10 0.0 0.0 0.00 0.00 0.00 30 1011.8
20260506020707 10 0.0 0.0 0.00 0.00 0.00 30 1011.8
20260506015706 10 0.0 0.0 0.00 0.00 0.00 30 1011.8
20260506015206 10 0.0 0.0 0.00 0.00 0.00 30 1011.8
20260506014209 10 0.0 0.0 0.00 0.00 0.00 31 1012.9
20260506013707 10 0.0 0.0 0.00 0.00 0.00 31 1012.9
20260506012708 10 0.0 0.0 0.00 0.00 0.00 31 1011.8
20260506012206 10 0.0 0.0 0.00 0.00 0.00 31 1011.8
20260506011208 10 0.0 0.0 0.00 0.00 0.00 31 1011.8
20260506005708 10 0.0 0.0 0.00 0.00 0.00 30 1011.8
20260506005207 10 0.0 0.0 0.00 0.00 0.00 31 1011.8
20260506004207 10 0.0 0.0 0.00 0.00 0.00 31 1011.8
20260506003708 10 0.0 0.0 0.00 0.00 0.00 31 1011.8
20260506002706 10 0.0 0.0 0.00 0.00 0.00 31 1011.8
20260506002208 10 0.0 0.0 0.00 0.00 0.00 30 1011.8
20260506001207 10 0.0 0.0 0.00 0.00 0.00 30 1012.9
20260506000707 10 0.0 0.0 0.00 0.00 0.00 30 1012.9
20260505235706 10 0.0 0.0 0.00 0.00 0.00 30 1012.9
20260505234207 10 0.0 0.0 0.00 0.00 0.00 30 1012.9
20260505233706 10 0.0 0.0 0.00 0.00 0.00 30 1012.9
20260505232707 10 0.0 0.0 0.00 0.00 0.00 30 1012.9
20260505232205 10 0.0 0.0 0.00 0.00 0.00 30 1012.9
20260505231207 10 0.0 0.0 0.00 0.00 0.00 30 1012.9
20260505225707 10 0.0 0.0 0.00 0.00 0.00 30 1012.9